Regional Weather Roundup
Issued by NWS

Home | Current Version | Previous Version | Text Only | Print | Product List | Glossary On
Versions: 1 2 3 4 5 6 7 8 9 10 11 12 13 14 15 16 17 18 19 20 21 22 23 24 25 26 27 28 29 30 31 32 33 34 35 36 37 38 39 40 41 42 43 44 45 46 47 48 49 50
000
ASUS46 KSEW 061710
RWRWA

WASHINGTON REGIONAL WEATHER ROUNDUP
NATIONAL WEATHER SERVICE SEATTLE WA
1000 AM PDT FRI MAY 06 2016

NOTE:"FAIR" INDICATES FEW OR NO CLOUDS BELOW 12,000 FEET WITH NO
SIGNIFICANT WEATHER AND/OR OBSTRUCTIONS TO VISIBILITY.

WAZ505-507>509-061800-
SEATTLE, TACOMA, EVERETT, AND VICINITY

CITY           SKY/WX    TMP DP  RH WIND       PRES   REMARKS
EVERETT        SUNNY     59  45  59 N8        30.11S
BOEING FIELD   NOT AVBL
RENTON         SUNNY     63  49  60 VRB6      30.09S
SEATAC AIRPORT MOSUNNY   64  44  48 N12       30.10S
JBLM-MCCHORD   NOT AVBL
PUYALLUP       FAIR      63  52  67 CALM      30.09F
BREMERTON      SUNNY     64  46  52 NE10      30.10S
JBLM-FT LEWIS  SUNNY     64  47  53 N9        30.08S
TACOMA NARROWS SUNNY     62  44  51 NE10G18   30.10R
$$

WAZ001-503-506-510-514-515-061800-
NORTH INTERIOR

CITY           SKY/WX    TMP DP  RH WIND       PRES   REMARKS
BELLINGHAM     SUNNY     67  43  41 NW7       30.09R
FRIDAY HARBOR  SUNNY     63  44  50 N10       30.12R
EASTSOUND      SUNNY     57  48  72 N8        30.11S
PORT ANGELES   LGT RAIN  68  35  29 E6        30.13R
EDIZ HOOK      FAIR      64  40  41 CALM      30.12S
PORT TOWNSEND  FAIR      64  41  42 NW10      30.11S
NAS WHIDBEY    MOSUNNY   62  50  64 NW9       30.14S
ARLINGTON      SUNNY     59  46  63 NE3       30.12S
BURLINGTON     SUNNY     61  48  63 W8        30.10S
$$

WAZ020-022-039-040-504-511-512-061800-
SOUTHWEST INTERIOR

CITY           SKY/WX    TMP DP  RH WIND       PRES   REMARKS
SHELTON        SUNNY     60  46  59 VRB3      30.07S
OLYMPIA        SUNNY     65  44  46 NE10G18   30.08F
CHEHALIS       FAIR      66  48  52 N14       30.07F
KELSO          SUNNY     66  45  45 N12G18    30.07F
VANCOUVER      SUNNY     64  50  60 VRB6      30.01F
SCAPPOOSE, OR  SUNNY     67  46  47 N10G21    30.01S
PORTLAND, OR   MOSUNNY   65  49  56 NW7       30.01F
$$

WAZ021-516-517-061800-
WASHINGTON COAST

CITY           SKY/WX    TMP DP  RH WIND       PRES   REMARKS
FORKS          SUNNY     72  36  26 NE16G22   30.07S
HOQUIAM        SUNNY     62  52  69 E7        30.07F
ASTORIA, OR    SUNNY     60  51  72 N9        30.05F
$$

WAZ019-023-024-040-518-519-061800-
CASCADE MOUNTAINS AND COLUMBIA GORGE

CITY           SKY/WX    TMP DP  RH WIND       PRES   REMARKS
STAMPEDE PASS  SUNNY     59  42  53 CALM      30.11S
TROUTDALE, OR  SUNNY     62  50  64 VRB3      30.01F
THE DALLES, OR SUNNY     67  52  58 VRB3      29.99F
$$

WAZ026-027-041>044-520-521-061800-
EAST SLOPES

CITY           SKY/WX    TMP DP  RH WIND       PRES   REMARKS
OMAK           PTSUNNY   64  36  35 N22G29    30.12S
WENATCHEE      MOSUNNY   64  43  46 NW9       30.08S
ELLENSBURG     SUNNY     66  49  54 CALM      30.04F
YAKIMA         SUNNY     75  43  31 VRB6      30.02F
$$

WAZ028-034-035-061800-
COLUMBIA BASIN

CITY           SKY/WX    TMP DP  RH WIND       PRES   REMARKS
EPHRATA        SUNNY     72  43  35 N21G26    30.03R
MOSES LAKE     SUNNY     73  46  38 N20       30.02F
PASCO          MOSUNNY   69  51  52 N10       29.99F
HERMISTON, OR  MOSUNNY   68  48  48 N9        29.99S
$$

WAZ036>038-061800-
NORTHEAST WASHINGTON

CITY           SKY/WX    TMP DP  RH WIND       PRES   REMARKS
SPOKANE GEIGER PTSUNNY   68  47  46 NE20G25   30.04F
SPOKANE FELTS  MOSUNNY   71  47  42 E13       30.05S
FAIRCHILD AFB  SUNNY     67  49  51 NE17G24   30.04S
COEURDALENE,ID MOSUNNY  N/A N/A N/A NE22G28   30.03S
DEER PARK      MOSUNNY   68  47  46 NE17G29   30.07S
$$

WAZ029>033-061800-
SOUTHEAST WASHINGTON

CITY           SKY/WX    TMP DP  RH WIND       PRES   REMARKS
PULLMAN        PTSUNNY   65  55  70 N8        30.02S
LEWISTON, ID   CLOUDY    63  56  78 VRB3      29.98S
WALLA WALLA    MOSUNNY   60  50  69 SW6       30.00R
PENDLETON, OR  PTSUNNY   60  46  59 W5        30.00R
$$



USA.gov is the U.S. government's official web portal to all federal, state and local government web resources and services.